Cut Bank, MT

6:17 PM MDT on August 28, 2016 (GMT -0600)
Cut Bank Municipal

Weather History for KCTB - February, 2014

Change the Weather History Date:

Tuesday, February 18, 2014

  Actual Average Record
Temperature  
Mean Temperature 32 °F 24 °F  
Max Temperature 39 °F 36 °F 62 °F (1916)
Min Temperature 24 °F 13 °F -38 °F (1936)
Degree Days  
Heating Degree Days 33 41  
Month to date heating degree days 958 748  
Since 1 July heating degree days 5666 5666  
Cooling Degree Days 0 0  
Month to date cooling degree days 0 0  
Year to date cooling degree days 0 0  
Moisture  
Dew Point 21 °F    
Average Humidity 67    
Maximum Humidity 81    
Minimum Humidity 52    
Precipitation  
Precipitation 0.00 in 0.01 in 0.23 in (1940)
Month to date precipitation 0.14 0.12  
Year to date precipitation 0.96 0.32  
Snow  
Snow 0.00 in - - ()
Snow Depth T in    
Sea Level Pressure  
Sea Level Pressure 29.71 in    
Wind  
Wind Speed 19 mph (SW)    
Max Wind Speed 45 mph    
Max Gust Speed 52 mph    
Visibility 10 miles    
Events      
T = Trace of Precipitation, MM = Missing Value Source: NWS Daily Summary

Daily Weather History Graph

Daily Weather History Graph

Search for Another Location

Airport or City:

Trip Planner

Search our weather history database for the weather conditions in past years. The results will help you decide how hot, cold, wet, or windy it might be!

Date:

Astronomy

Feb. 18, 2014 Rise Set
Actual Time 7:31 AM MST 5:55 PM MST
Civil Twilight 6:59 AM MST 6:28 PM MST
Nautical Twilight 6:22 AM MST 7:04 PM MST
Astronomical Twilight 5:46 AM MST 7:41 PM MST
Moon 10:16 PM MST (2/18) 8:45 AM MST (2/18)
Length of Visible Light 11h 28m
Length of Day
10h 24m
Waning Gibbous, 87% of the Moon is Illuminated
Feb 18
Waning Gibbous
Feb 22
Last Quarter
Mar 1
New
Mar 8
First Quarter
Mar 16
Full

Hourly Weather History & Observations

Time (MST) Temp. Windchill Dew Point Humidity Pressure Visibility Wind Dir Wind Speed Gust Speed Precip Events Conditions
12:56 AM 28.9 °F 15.4 °F 21.9 °F 75% 29.62 in 10.0 mi WSW 21.9 mph - N/A   Partly Cloudy
1:56 AM 28.0 °F 13.9 °F 21.0 °F 75% 29.65 in 10.0 mi WSW 23.0 mph - N/A   Clear
2:56 AM 27.0 °F 12.8 °F 18.0 °F 69% 29.70 in 10.0 mi West 21.9 mph - N/A   Clear
3:56 AM 26.1 °F 12.0 °F 18.0 °F 71% 29.73 in 10.0 mi West 20.7 mph - N/A   Clear
4:56 AM 26.1 °F 12.3 °F 16.0 °F 66% 29.77 in 10.0 mi West 19.6 mph - N/A   Clear
5:56 AM 26.1 °F 12.3 °F 21.0 °F 81% 29.82 in 10.0 mi WSW 19.6 mph - N/A   Clear
6:56 AM 26.1 °F 12.0 °F 21.0 °F 81% 29.83 in 10.0 mi WSW 20.7 mph - N/A   Clear
7:56 AM 24.1 °F 12.0 °F 18.0 °F 77% 29.86 in 10.0 mi WSW 13.8 mph - N/A   Clear
8:56 AM 28.9 °F 15.8 °F 19.0 °F 67% 29.87 in 10.0 mi West 20.7 mph 28.8 mph N/A   Clear
9:56 AM 30.9 °F 15.5 °F 21.0 °F 67% 29.83 in 10.0 mi WSW 33.4 mph 41.4 mph N/A   Clear
10:56 AM 33.1 °F 18.9 °F 19.9 °F 59% 29.85 in 10.0 mi WSW 31.1 mph 39.1 mph N/A   Clear
11:56 AM 34.0 °F 19.7 °F 21.0 °F 59% 29.87 in 10.0 mi WSW 33.4 mph 43.7 mph N/A   Clear
12:56 PM 35.1 °F 23.0 °F 23.0 °F 61% 29.84 in 10.0 mi WSW 24.2 mph - N/A   Clear
1:56 PM 37.0 °F 25.1 °F 23.0 °F 57% 29.81 in 10.0 mi WSW 26.5 mph 35.7 mph N/A   Clear
2:56 PM 37.9 °F 26.8 °F 21.9 °F 53% 29.78 in 10.0 mi WSW 24.2 mph 43.7 mph N/A   Clear
3:56 PM 37.9 °F 26.8 °F 23.0 °F 55% 29.76 in 10.0 mi WSW 24.2 mph 32.2 mph N/A   Clear
4:56 PM 37.9 °F 31.5 °F 21.9 °F 53% 29.71 in 10.0 mi South 9.2 mph - N/A   Clear
5:56 PM 35.1 °F 27.9 °F 21.9 °F 59% 29.68 in 10.0 mi SSW 9.2 mph - N/A   Clear
6:56 PM 34.0 °F 27.2 °F 19.9 °F 56% 29.64 in 10.0 mi SSE 8.1 mph - N/A   Clear
7:56 PM 36.0 °F 30.3 °F 19.0 °F 50% 29.59 in 10.0 mi South 6.9 mph - N/A   Clear
8:56 PM 34.0 °F 27.2 °F 21.9 °F 61% 29.52 in 10.0 mi SE 8.1 mph - N/A   Clear
9:56 PM 33.1 °F 27.7 °F 21.9 °F 64% 29.47 in 10.0 mi South 5.8 mph - N/A   Clear
10:56 PM 33.1 °F 23.0 °F 25.0 °F 72% 29.43 in 10.0 mi SW 15.0 mph - N/A   Clear
11:56 PM 33.1 °F 25.5 °F 26.1 °F 75% 29.41 in 10.0 mi WSW 9.2 mph - N/A   Scattered Clouds